Location: Savignano sul Rubicone
(44.0950°N, 12.4090°E)
Time: 12:27:53
(UTC+01:00)

N. Korean satellite - Pass Details

Date: 25 October 2019
Orbit: 456 x 506 km, 97.2° (Epoch: 13 November)

Event Time Altitude Azimuth Distance (km) Brightness Sun altitude
Rises 06:14:08 0° 28° (NNE) 2,578 10.6 -15.5°
Reaches altitude 10° 06:16:41 10° 46° (NE) 1,699 10.0 -15.1°
Maximum altitude 06:19:21 19° 93° (E) 1,240 9.7 -14.6°
Drops below altitude 10° 06:22:01 10° 140° (SE) 1,704 9.9 -14.1°
Sets 06:24:34 0° 159° (SSE) 2,588 10.6 -13.7°
